map of ORE home
Great Circle Mapper logo
ORE - Airport
Location
City:  Orléans, France
Name:Bricy
ICAO / IATA:LFOJ / ORE

Details
Type:Airport (Aerodrome, Airfield)
Use:Military
Latitude:47°59'16"N (47.987778)
Longitude:1°45'38"E (1.760556)
Elevation:412 ft (126 m)
Variation:0.09°E (WMM2015 magnetic declination)
0.13° annual change
Runways:1
Longest:7887 × 148 ft (2404 × 45 m)

Time
Time Zone:UTC+1 (DST+2)
Local Time:

Weather
METAR:LFOJ 010930Z AUTO 27015KT 9999 BKN011 BKN032 BKN038 02/00 Q0999
TAF:LFOJ 010500Z 0106/0206 28010KT 9999 BKN040
BECMG 0109/0110 6000 -SNRA BKN025 BKN040 PROB40
TEMPO 0110/0112 31015G25KT 4000 -SHSN SCT005 BKN015TCU BKN025
BECMG0113/0115 9999 BKN030
BECMG 0119/0121 26010KT 6000 -RA SCT015 BKN040 PROB30
TEMPO 0122/0124 4000 -RASN OVC020
BECMG 0202/0204 26005KT 2000 BR SCT005 OVC040

Related Locations
Nearby:
Farthest:CHT: 12130 mi / 19521 km
Waitangi [Tuuta], Chatham Islands, NZ

Find:

   beyond  
but within

Other Information
Maps:
NOTAMs:
Links:
Sources:

  
flag of France   

Sectional Chart

Flight Planning
at skyvector.com

Satellite Image

Google Maps Satellite View

 

Copyright © 2004-2015 Karl L. Swartz. All rights reserved.
The Great Circle Mapper name and logo are trademarks of the Great Circle Mapper.
All other trademarks mentioned herein belong to their respective owners.
Please see credits for attibutions and further copyright information.

  Follow gcmap on Facebook Follow gcmap on Twitter

hCard Microformat

Geo Microformat